Location: Canyam�s
(41.5996°N, 2.4450°E)
Time: 04:30:00
(UTC+00:00)

SAR-Lupe-2 - Pass Details

Date: 06 June 2020
Orbit: 481 x 485 km, 98.1° (Epoch: 23 June)

Event Time Altitude Azimuth Distance (km) Brightness Sun altitude
Rises 21:11:06 0° 8° (N) 2,552 7.9 -16.0°
Reaches altitude 10° 21:13:11 10° 5° (N) 1,668 7.0 -16.2°
Maximum altitude 21:16:42 57° 286° (WNW) 572 4.1 -16.6°
Enters shadow 21:19:35 14° 209° (SSW) 1,404 5.6 -16.9°
